Time,TemperatureF,DewpointF,PressureIn,WindDirection,WindDirectionDegrees,WindSpeedMPH,WindSpeedGustMPH,Humidity,HourlyPrecipIn,Conditions,Clouds,dailyrainin,SoftwareType,DateUTC
2013-10-10 00:00:00,67.6,50.4,28.46,ESE,113,15.0,15.0,54,0.00,,,0.00,meteohub,2013-10-10 05:00:00,
2013-10-10 00:05:00,67.6,50.4,28.46,East,90,11.0,15.0,54,0.00,,,0.00,meteohub,2013-10-10 05:05:00,
2013-10-10 00:10:00,67.8,50.5,28.46,East,90,9.0,15.0,54,0.00,,,0.00,meteohub,2013-10-10 05:10:00,
2013-10-10 00:15:00,67.5,50.7,28.46,East,90,8.0,15.0,55,0.00,,,0.00,meteohub,2013-10-10 05:15:00,
2013-10-10 00:20:00,67.3,50.5,28.46,SE,135,8.0,11.0,55,0.00,,,0.00,meteohub,2013-10-10 05:20:00,
2013-10-10 00:25:00,67.5,50.7,28.47,East,90,9.0,11.0,55,0.00,,,0.00,meteohub,2013-10-10 05:25:00,
2013-10-10 00:30:00,67.5,50.7,28.47,East,90,5.0,11.0,55,0.00,,,0.00,meteohub,2013-10-10 05:30:00,
2013-10-10 00:35:00,67.3,51.1,28.47,East,90,10.0,11.0,56,0.00,,,0.00,meteohub,2013-10-10 05:35:00,
2013-10-10 00:40:00,67.5,51.3,28.47,SE,135,9.0,12.0,56,0.00,,,0.00,meteohub,2013-10-10 05:40:00,
2013-10-10 00:45:00,67.5,51.3,28.47,South,180,7.0,12.0,56,0.00,,,0.00,meteohub,2013-10-10 05:45:00,
2013-10-10 00:50:00,67.3,51.1,28.47,East,90,2.0,12.0,56,0.00,,,0.00,meteohub,2013-10-10 05:50:00,
2013-10-10 00:55:00,67.1,50.9,28.46,East,90,8.0,12.0,56,0.00,,,0.00,meteohub,2013-10-10 05:55:00,
2013-10-10 01:00:00,66.9,51.3,28.46,East,90,8.0,11.0,57,0.00,,,0.00,meteohub,2013-10-10 06:00:00,
2013-10-10 01:05:00,66.9,51.3,28.46,SE,135,7.0,11.0,57,0.00,,,0.00,meteohub,2013-10-10 06:05:00,
2013-10-10 01:10:00,66.7,51.4,28.46,East,90,11.0,14.0,58,0.00,,,0.00,meteohub,2013-10-10 06:10:00,
2013-10-10 01:15:00,66.7,51.4,28.46,East,90,13.0,14.0,58,0.00,,,0.00,meteohub,2013-10-10 06:15:00,
2013-10-10 01:20:00,66.7,51.4,28.46,East,90,8.0,14.0,58,0.00,,,0.00,meteohub,2013-10-10 06:20:00,
2013-10-10 01:25:00,66.7,51.4,28.46,NE,45,8.0,13.0,58,0.00,,,0.00,meteohub,2013-10-10 06:25:00,
2013-10-10 01:30:00,66.6,51.8,28.46,East,90,15.0,15.0,59,0.00,,,0.00,meteohub,2013-10-10 06:30:00,
2013-10-10 01:35:00,66.2,51.4,28.46,SE,135,10.0,15.0,59,0.00,,,0.00,meteohub,2013-10-10 06:35:00,
2013-10-10 01:40:00,66.4,51.6,28.47,East,90,8.0,15.0,59,0.00,,,0.00,meteohub,2013-10-10 06:40:00,
2013-10-10 01:45:00,66.2,51.4,28.47,SE,135,9.0,15.0,59,0.00,,,0.00,meteohub,2013-10-10 06:45:00,
2013-10-10 01:50:00,66.0,51.3,28.47,NE,45,8.0,11.0,59,0.00,,,0.00,meteohub,2013-10-10 06:50:00,
2013-10-10 01:55:00,66.0,51.8,28.47,SE,135,8.0,12.0,60,0.00,,,0.00,meteohub,2013-10-10 06:55:00,
2013-10-10 02:00:00,66.0,51.8,28.47,East,90,7.0,12.0,60,0.00,,,0.00,meteohub,2013-10-10 07:00:00,
2013-10-10 02:05:00,66.0,51.8,28.48,East,90,8.0,11.0,60,0.00,,,0.00,meteohub,2013-10-10 07:05:00,
2013-10-10 02:10:00,65.7,51.8,28.48,SE,135,11.0,11.0,61,0.00,,,0.00,meteohub,2013-10-10 07:10:00,
2013-10-10 02:16:00,65.7,51.8,28.48,East,90,11.0,11.0,61,0.00,,,0.00,meteohub,2013-10-10 07:16:00,
2013-10-10 02:21:00,65.5,51.6,28.48,NE,45,8.0,12.0,61,0.00,,,0.00,meteohub,2013-10-10 07:21:00,
2013-10-10 02:26:00,65.5,51.6,28.47,East,90,8.0,12.0,61,0.00,,,0.00,meteohub,2013-10-10 07:26:00,
2013-10-10 02:31:00,65.3,52.0,28.47,East,90,8.0,12.0,62,0.00,,,0.00,meteohub,2013-10-10 07:31:00,
2013-10-10 02:36:00,65.5,52.2,28.47,SE,135,9.0,11.0,62,0.00,,,0.00,meteohub,2013-10-10 07:36:00,
2013-10-10 02:41:00,65.1,51.8,28.47,SE,135,9.0,11.0,62,0.00,,,0.00,meteohub,2013-10-10 07:41:00,
2013-10-10 02:46:00,65.3,52.3,28.47,East,90,7.0,14.0,63,0.00,,,0.00,meteohub,2013-10-10 07:46:00,
2013-10-10 02:51:00,64.9,52.0,28.47,NE,45,8.0,14.0,63,0.00,,,0.00,meteohub,2013-10-10 07:51:00,
2013-10-10 02:56:00,64.9,52.5,28.47,East,90,9.0,14.0,64,0.00,,,0.00,meteohub,2013-10-10 07:56:00,
2013-10-10 03:01:00,64.6,52.2,28.47,East,90,7.0,13.0,64,0.00,,,0.00,meteohub,2013-10-10 08:01:00,
2013-10-10 03:06:00,64.6,52.5,28.47,East,90,10.0,10.0,65,0.00,,,0.00,meteohub,2013-10-10 08:06:00,
2013-10-10 03:11:00,64.2,52.2,28.47,East,90,8.0,10.0,65,0.00,,,0.00,meteohub,2013-10-10 08:11:00,
2013-10-10 03:16:00,64.0,52.5,28.47,East,90,5.0,10.0,66,0.00,,,0.00,meteohub,2013-10-10 08:16:00,
2013-10-10 03:21:00,64.0,52.5,28.47,East,90,1.0,11.0,66,0.00,,,0.00,meteohub,2013-10-10 08:21:00,
2013-10-10 03:26:00,63.9,52.7,28.46,East,90,8.0,11.0,67,0.00,,,0.00,meteohub,2013-10-10 08:26:00,
2013-10-10 03:31:00,63.9,52.7,28.47,East,90,6.0,11.0,67,0.00,,,0.00,meteohub,2013-10-10 08:31:00,
2013-10-10 03:36:00,63.9,52.7,28.47,SE,135,9.0,11.0,67,0.00,,,0.00,meteohub,2013-10-10 08:36:00,
2013-10-10 03:41:00,63.5,52.7,28.47,WNW,293,10.0,11.0,68,0.00,,,0.00,meteohub,2013-10-10 08:41:00,
2013-10-10 03:46:00,63.3,52.5,28.46,East,90,5.0,11.0,68,0.00,,,0.00,meteohub,2013-10-10 08:46:00,
2013-10-10 03:51:00,63.3,53.1,28.46,East,90,1.0,11.0,69,0.00,,,0.00,meteohub,2013-10-10 08:51:00,
2013-10-10 03:56:00,63.5,53.1,28.47,SE,135,8.0,11.0,69,0.00,,,0.00,meteohub,2013-10-10 08:56:00,
2013-10-10 04:01:00,63.1,52.9,28.47,NE,45,8.0,8.0,69,0.00,,,0.00,meteohub,2013-10-10 09:01:00,
2013-10-10 04:06:00,63.0,53.1,28.46,East,90,7.0,8.0,70,0.00,,,0.00,meteohub,2013-10-10 09:06:00,
2013-10-10 04:11:00,63.1,53.2,28.46,SE,135,8.0,11.0,70,0.00,,,0.00,meteohub,2013-10-10 09:11:00,
2013-10-10 04:16:00,63.1,53.2,28.46,East,90,6.0,11.0,70,0.00,,,0.00,meteohub,2013-10-10 09:16:00,
2013-10-10 04:21:00,63.0,53.4,28.47,East,90,10.0,10.0,71,0.00,,,0.00,meteohub,2013-10-10 09:21:00,
2013-10-10 04:26:00,62.8,53.2,28.46,East,90,7.0,11.0,71,0.00,,,0.00,meteohub,2013-10-10 09:26:00,
2013-10-10 04:31:00,62.6,53.4,28.47,SE,135,10.0,11.0,72,0.00,,,0.00,meteohub,2013-10-10 09:31:00,
2013-10-10 04:36:00,62.6,53.4,28.46,SE,135,5.0,10.0,72,0.00,,,0.00,meteohub,2013-10-10 09:36:00,
2013-10-10 04:41:00,62.4,53.2,28.47,East,90,1.0,10.0,72,0.00,,,0.00,meteohub,2013-10-10 09:41:00,
2013-10-10 04:46:00,62.2,53.1,28.47,East,90,5.0,10.0,72,0.00,,,0.00,meteohub,2013-10-10 09:46:00,
2013-10-10 04:51:00,62.1,53.2,28.47,East,90,7.0,8.0,73,0.00,,,0.00,meteohub,2013-10-10 09:51:00,
2013-10-10 04:56:00,62.2,53.4,28.47,SE,135,7.0,8.0,73,0.00,,,0.00,meteohub,2013-10-10 09:56:00,
2013-10-10 05:01:00,61.7,53.2,28.47,ESE,113,5.0,12.0,74,0.00,,,0.00,meteohub,2013-10-10 10:01:00,
2013-10-10 05:06:00,61.7,53.2,28.47,East,90,5.0,12.0,74,0.00,,,0.00,meteohub,2013-10-10 10:06:00,
2013-10-10 05:11:00,61.7,53.2,28.47,SE,135,8.0,12.0,74,0.00,,,0.00,meteohub,2013-10-10 10:11:00,
2013-10-10 05:16:00,61.5,53.6,28.47,ENE,68,1.0,10.0,75,0.00,,,0.00,meteohub,2013-10-10 10:16:00,
2013-10-10 05:21:00,61.3,53.4,28.47,North,0,8.0,9.0,75,0.00,,,0.00,meteohub,2013-10-10 10:21:00,
2013-10-10 05:26:00,61.2,53.6,28.47,NE,45,8.0,9.0,76,0.00,,,0.00,meteohub,2013-10-10 10:26:00,
2013-10-10 05:31:00,61.2,53.6,28.47,East,90,8.0,10.0,76,0.00,,,0.00,meteohub,2013-10-10 10:31:00,
2013-10-10 05:36:00,61.2,53.6,28.47,East,90,2.0,11.0,76,0.00,,,0.00,meteohub,2013-10-10 10:36:00,
2013-10-10 05:41:00,61.0,53.8,28.47,NE,45,8.0,11.0,77,0.00,,,0.00,meteohub,2013-10-10 10:41:00,
2013-10-10 05:46:00,61.0,53.8,28.47,SE,135,10.0,11.0,77,0.00,,,0.00,meteohub,2013-10-10 10:46:00,
2013-10-10 05:51:00,60.8,53.6,28.47,SE,135,7.0,11.0,77,0.00,,,0.00,meteohub,2013-10-10 10:51:00,
2013-10-10 05:56:00,61.0,53.8,28.47,SE,135,9.0,10.0,77,0.00,,,0.00,meteohub,2013-10-10 10:56:00,
2013-10-10 06:01:00,60.8,54.0,28.47,East,90,7.0,10.0,78,0.00,,,0.00,meteohub,2013-10-10 11:01:00,
2013-10-10 06:06:00,60.8,54.0,28.47,SE,135,8.0,11.0,78,0.00,,,0.00,meteohub,2013-10-10 11:06:00,
2013-10-10 06:11:00,60.4,53.6,28.47,East,90,6.0,11.0,78,0.00,,,0.00,meteohub,2013-10-10 11:11:00,
2013-10-10 06:16:00,60.3,53.8,28.47,NE,45,8.0,11.0,79,0.00,,,0.00,meteohub,2013-10-10 11:16:00,
2013-10-10 06:21:00,60.3,53.8,28.47,SSE,158,6.0,10.0,79,0.00,,,0.00,meteohub,2013-10-10 11:21:00,
2013-10-10 06:26:00,60.1,54.0,28.47,East,90,6.0,10.0,80,0.00,,,0.00,meteohub,2013-10-10 11:26:00,
2013-10-10 06:31:00,60.1,54.0,28.47,SE,135,9.0,9.0,80,0.00,,,0.00,meteohub,2013-10-10 11:31:00,
2013-10-10 06:36:00,60.1,54.0,28.47,East,90,6.0,9.0,80,0.00,,,0.00,meteohub,2013-10-10 11:36:00,
2013-10-10 06:41:00,60.3,54.1,28.47,NE,45,8.0,9.0,80,0.00,,,0.00,meteohub,2013-10-10 11:41:00,
2013-10-10 06:46:00,60.1,54.0,28.47,East,90,4.0,11.0,80,0.00,,,0.00,meteohub,2013-10-10 11:46:00,
2013-10-10 06:51:00,59.9,53.8,28.48,ENE,68,6.0,11.0,80,0.00,,,0.00,meteohub,2013-10-10 11:51:00,
2013-10-10 06:56:00,59.5,53.8,28.47,East,90,7.0,10.0,81,0.00,,,0.00,meteohub,2013-10-10 11:56:00,
2013-10-10 07:01:00,59.7,54.0,28.47,East,90,4.0,8.0,81,0.00,,,0.00,meteohub,2013-10-10 12:01:00,
2013-10-10 07:06:00,59.4,53.6,28.47,East,90,1.0,8.0,81,0.00,,,0.00,meteohub,2013-10-10 12:06:00,
2013-10-10 07:11:00,59.4,53.8,28.47,SE,135,7.0,8.0,82,0.00,,,0.00,meteohub,2013-10-10 12:11:00,
2013-10-10 07:16:00,59.2,53.6,28.47,SE,135,1.0,8.0,82,0.00,,,0.00,meteohub,2013-10-10 12:16:00,
2013-10-10 07:21:00,59.0,53.8,28.48,ENE,68,1.0,8.0,83,0.00,,,0.00,meteohub,2013-10-10 12:21:00,
2013-10-10 07:26:00,58.6,53.4,28.48,East,90,1.0,8.0,83,0.00,,,0.00,meteohub,2013-10-10 12:26:00,
2013-10-10 07:31:00,58.6,53.4,28.48,East,90,2.0,5.0,83,0.00,,,0.00,meteohub,2013-10-10 12:31:00,
2013-10-10 07:36:00,58.5,53.6,28.48,East,90,4.0,5.0,84,0.00,,,0.00,meteohub,2013-10-10 12:36:00,
2013-10-10 07:41:00,58.5,53.6,28.48,East,90,3.0,4.0,84,0.00,,,0.00,meteohub,2013-10-10 12:41:00,
2013-10-10 07:46:00,58.5,53.6,28.48,NE,45,1.0,4.0,84,0.00,,,0.00,meteohub,2013-10-10 12:46:00,
2013-10-10 07:51:00,58.6,53.8,28.48,East,90,1.0,4.0,84,0.00,,,0.00,meteohub,2013-10-10 12:51:00,
2013-10-10 07:56:00,58.8,54.0,28.48,SSE,158,1.0,5.0,84,0.00,,,0.00,meteohub,2013-10-10 12:56:00,
2013-10-10 08:01:00,58.8,54.0,28.48,North,0,5.0,5.0,84,0.00,,,0.00,meteohub,2013-10-10 13:01:00,
2013-10-10 08:06:00,59.0,54.1,28.48,East,90,8.0,8.0,84,0.00,,,0.00,meteohub,2013-10-10 13:06:00,
2013-10-10 08:11:00,59.0,54.1,28.48,East,90,5.0,8.0,84,0.00,,,0.00,meteohub,2013-10-10 13:11:00,
2013-10-10 08:16:00,59.2,54.3,28.48,East,90,1.0,8.0,84,0.00,,,0.00,meteohub,2013-10-10 13:16:00,
2013-10-10 08:22:00,59.2,54.3,28.48,SE,135,1.0,8.0,84,0.00,,,0.00,meteohub,2013-10-10 13:22:00,
2013-10-10 08:27:00,59.5,54.7,28.48,SE,135,8.0,8.0,84,0.00,,,0.00,meteohub,2013-10-10 13:27:00,
2013-10-10 08:32:00,59.9,54.7,28.48,NE,45,7.0,8.0,83,0.00,,,0.00,meteohub,2013-10-10 13:32:00,
2013-10-10 08:37:00,60.4,55.2,28.48,North,0,1.0,9.0,83,0.00,,,0.00,meteohub,2013-10-10 13:37:00,
2013-10-10 08:42:00,60.6,55.0,28.48,East,90,2.0,9.0,82,0.00,,,0.00,meteohub,2013-10-10 13:42:00,
2013-10-10 08:47:00,61.0,55.0,28.49,East,90,1.0,9.0,81,0.00,,,0.00,meteohub,2013-10-10 13:47:00,
2013-10-10 08:52:00,61.3,55.4,28.49,East,90,1.0,7.0,81,0.00,,,0.00,meteohub,2013-10-10 13:52:00,
2013-10-10 08:57:00,62.1,55.8,28.49,East,90,1.0,7.0,80,0.00,,,0.00,meteohub,2013-10-10 13:57:00,
2013-10-10 09:02:00,62.8,56.1,28.49,East,90,11.0,11.0,79,0.00,,,0.00,meteohub,2013-10-10 14:02:00,
2013-10-10 09:06:00,63.1,56.1,28.49,East,90,6.0,11.0,78,0.00,,,0.00,meteohub,2013-10-10 14:06:00,
2013-10-10 09:11:00,64.0,56.7,28.49,East,90,2.0,11.0,77,0.00,,,0.00,meteohub,2013-10-10 14:11:00,
2013-10-10 09:16:00,64.4,56.7,28.50,East,90,8.0,11.0,76,0.00,,,0.00,meteohub,2013-10-10 14:16:00,
2013-10-10 09:21:00,65.3,57.6,28.50,SE,135,8.0,8.0,76,0.00,,,0.00,meteohub,2013-10-10 14:21:00,
2013-10-10 09:26:00,66.4,58.3,28.50,East,90,4.0,10.0,75,0.00,,,0.00,meteohub,2013-10-10 14:26:00,
2013-10-10 09:31:00,67.3,58.3,28.50,East,90,11.0,11.0,73,0.00,,,0.00,meteohub,2013-10-10 14:31:00,
2013-10-10 09:37:00,68.0,58.6,28.50,South,180,8.0,13.0,72,0.00,,,0.00,meteohub,2013-10-10 14:37:00,
2013-10-10 09:41:00,68.7,59.0,28.50,SE,135,8.0,13.0,71,0.00,,,0.00,meteohub,2013-10-10 14:41:00,
2013-10-10 09:47:00,69.1,58.8,28.50,East,90,7.0,13.0,70,0.00,,,0.00,meteohub,2013-10-10 14:47:00,
2013-10-10 09:52:00,69.3,59.0,28.50,SSE,158,4.0,11.0,70,0.00,,,0.00,meteohub,2013-10-10 14:52:00,
2013-10-10 09:57:00,69.8,59.2,28.50,East,90,12.0,12.0,69,0.00,,,0.00,meteohub,2013-10-10 14:57:00,
2013-10-10 10:02:00,70.2,59.2,28.50,East,90,7.0,12.0,68,0.00,,,0.00,meteohub,2013-10-10 15:02:00,
2013-10-10 10:07:00,70.3,59.4,28.50,East,90,8.0,12.0,68,0.00,,,0.00,meteohub,2013-10-10 15:07:00,
2013-10-10 10:12:00,70.9,59.4,28.50,SE,135,5.0,12.0,67,0.00,,,0.00,meteohub,2013-10-10 15:12:00,
2013-10-10 10:17:00,71.1,59.2,28.49,SW,225,8.0,13.0,66,0.00,,,0.00,meteohub,2013-10-10 15:17:00,
2013-10-10 10:22:00,71.6,59.7,28.49,South,180,7.0,13.0,66,0.00,,,0.00,meteohub,2013-10-10 15:22:00,
2013-10-10 10:27:00,72.3,59.9,28.49,NW,315,9.0,13.0,65,0.00,,,0.00,meteohub,2013-10-10 15:27:00,
2013-10-10 10:32:00,72.9,60.4,28.49,SW,225,6.0,10.0,65,0.00,,,0.00,meteohub,2013-10-10 15:32:00,
2013-10-10 10:37:00,73.4,60.1,28.48,SSE,158,8.0,10.0,63,0.00,,,0.00,meteohub,2013-10-10 15:37:00,
2013-10-10 10:42:00,73.6,60.3,28.48,NE,45,8.0,11.0,63,0.00,,,0.00,meteohub,2013-10-10 15:42:00,
2013-10-10 10:47:00,73.9,60.1,28.48,SE,135,8.0,11.0,62,0.00,,,0.00,meteohub,2013-10-10 15:47:00,
2013-10-10 10:52:00,74.5,60.6,28.49,East,90,6.0,11.0,62,0.00,,,0.00,meteohub,2013-10-10 15:52:00,
2013-10-10 10:57:00,75.2,60.8,28.48,SE,135,4.0,11.0,61,0.00,,,0.00,meteohub,2013-10-10 15:57:00,
2013-10-10 11:02:00,75.6,60.6,28.48,East,90,8.0,11.0,60,0.00,,,0.00,meteohub,2013-10-10 16:02:00,
2013-10-10 11:07:00,75.9,60.6,28.48,East,90,10.0,10.0,59,0.00,,,0.00,meteohub,2013-10-10 16:07:00,
2013-10-10 11:12:00,76.6,60.8,28.47,SW,225,9.0,11.0,58,0.00,,,0.00,meteohub,2013-10-10 16:12:00,
2013-10-10 11:17:00,76.6,60.8,28.47,South,180,11.0,11.0,58,0.00,,,0.00,meteohub,2013-10-10 16:17:00,
2013-10-10 11:22:00,77.0,61.2,28.47,SSW,203,8.0,12.0,58,0.00,,,0.00,meteohub,2013-10-10 16:22:00,
2013-10-10 11:27:00,77.7,61.3,28.46,SE,135,8.0,12.0,57,0.00,,,0.00,meteohub,2013-10-10 16:27:00,
2013-10-10 11:32:00,78.1,61.2,28.46,SE,135,7.0,12.0,56,0.00,,,0.00,meteohub,2013-10-10 16:32:00,
2013-10-10 11:37:00,78.3,60.8,28.46,WSW,248,11.0,11.0,55,0.00,,,0.00,meteohub,2013-10-10 16:37:00,
2013-10-10 11:42:00,77.9,61.0,28.46,East,90,8.0,11.0,56,0.00,,,0.00,meteohub,2013-10-10 16:42:00,
2013-10-10 11:47:00,78.3,60.8,28.46,West,270,11.0,12.0,55,0.00,,,0.00,meteohub,2013-10-10 16:47:00,
2013-10-10 11:52:00,78.3,60.8,28.46,South,180,8.0,14.0,55,0.00,,,0.00,meteohub,2013-10-10 16:52:00,
2013-10-10 11:57:00,79.2,61.2,28.46,SE,135,8.0,14.0,54,0.00,,,0.00,meteohub,2013-10-10 16:57:00,
2013-10-10 12:02:00,79.3,61.2,28.45,South,180,7.0,15.0,54,0.00,,,0.00,meteohub,2013-10-10 17:02:00,
2013-10-10 12:07:00,79.9,61.2,28.45,SE,135,8.0,15.0,53,0.00,,,0.00,meteohub,2013-10-10 17:07:00,
2013-10-10 12:12:00,80.2,61.5,28.45,East,90,11.0,15.0,53,0.00,,,0.00,meteohub,2013-10-10 17:12:00,
2013-10-10 12:17:00,79.9,60.6,28.45,SE,135,11.0,18.0,52,0.00,,,0.00,meteohub,2013-10-10 17:17:00,
2013-10-10 12:22:00,80.2,61.5,28.45,East,90,10.0,18.0,53,0.00,,,0.00,meteohub,2013-10-10 17:22:00,
2013-10-10 12:27:00,80.4,60.6,28.45,SW,225,10.0,18.0,51,0.00,,,0.00,meteohub,2013-10-10 17:27:00,
2013-10-10 12:32:00,80.4,60.6,28.44,South,180,16.0,16.0,51,0.00,,,0.00,meteohub,2013-10-10 17:32:00,
2013-10-10 12:37:00,80.1,61.3,28.44,SE,135,9.0,16.0,53,0.00,,,0.00,meteohub,2013-10-10 17:37:00,
2013-10-10 12:42:00,80.1,60.8,28.44,South,180,9.0,16.0,52,0.00,,,0.00,meteohub,2013-10-10 17:42:00,
2013-10-10 12:47:00,80.1,60.3,28.44,SE,135,12.0,16.0,51,0.00,,,0.00,meteohub,2013-10-10 17:47:00,
2013-10-10 12:52:00,80.4,61.2,28.43,SW,225,6.0,14.0,52,0.00,,,0.00,meteohub,2013-10-10 17:52:00,
2013-10-10 12:57:00,81.0,61.2,28.43,East,90,10.0,14.0,51,0.00,,,0.00,meteohub,2013-10-10 17:57:00,
2013-10-10 13:02:00,81.5,62.2,28.43,SE,135,8.0,13.0,52,0.00,,,0.00,meteohub,2013-10-10 18:02:00,
2013-10-10 13:07:00,81.5,61.0,28.43,SE,135,7.0,13.0,50,0.00,,,0.00,meteohub,2013-10-10 18:07:00,
2013-10-10 13:12:00,82.0,60.4,28.42,SE,135,10.0,17.0,48,0.00,,,0.00,meteohub,2013-10-10 18:12:00,
2013-10-10 13:17:00,82.0,61.0,28.42,East,90,11.0,17.0,49,0.00,,,0.00,meteohub,2013-10-10 18:17:00,
2013-10-10 13:22:00,81.7,61.2,28.41,East,90,6.0,17.0,50,0.00,,,0.00,meteohub,2013-10-10 18:22:00,
2013-10-10 13:27:00,82.6,61.0,28.41,NE,45,12.0,18.0,48,0.00,,,0.00,meteohub,2013-10-10 18:27:00,
2013-10-10 13:32:00,82.8,60.4,28.41,SSE,158,8.0,18.0,47,0.00,,,0.00,meteohub,2013-10-10 18:32:00,
2013-10-10 13:37:00,82.8,61.0,28.40,East,90,8.0,18.0,48,0.00,,,0.00,meteohub,2013-10-10 18:37:00,
2013-10-10 13:42:00,83.5,60.4,28.40,East,90,11.0,13.0,46,0.00,,,0.00,meteohub,2013-10-10 18:42:00,
2013-10-10 13:47:00,83.3,60.4,28.40,East,90,15.0,15.0,46,0.00,,,0.00,meteohub,2013-10-10 18:47:00,
2013-10-10 13:53:00,83.5,59.9,28.40,SE,135,10.0,16.0,45,0.00,,,0.00,meteohub,2013-10-10 18:53:00,
2013-10-10 13:58:00,83.5,60.4,28.40,South,180,10.0,16.0,46,0.00,,,0.00,meteohub,2013-10-10 18:58:00,
2013-10-10 14:03:00,84.0,60.4,28.39,NE,45,13.0,16.0,45,0.00,,,0.00,meteohub,2013-10-10 19:03:00,
2013-10-10 14:08:00,84.2,58.6,28.39,SE,135,12.0,13.0,42,0.00,,,0.00,meteohub,2013-10-10 19:08:00,
2013-10-10 14:13:00,84.4,58.8,28.39,South,180,11.0,17.0,42,0.00,,,0.00,meteohub,2013-10-10 19:13:00,
2013-10-10 14:18:00,84.4,59.4,28.38,East,90,7.0,17.0,43,0.00,,,0.00,meteohub,2013-10-10 19:18:00,
2013-10-10 14:23:00,85.3,58.3,28.38,SE,135,15.0,17.0,40,0.00,,,0.00,meteohub,2013-10-10 19:23:00,
2013-10-10 14:28:00,84.6,59.0,28.37,East,90,12.0,13.0,42,0.00,,,0.00,meteohub,2013-10-10 19:28:00,
2013-10-10 14:33:00,85.3,59.0,28.37,SE,135,12.0,17.0,41,0.00,,,0.00,meteohub,2013-10-10 19:33:00,
2013-10-10 14:38:00,85.3,59.0,28.36,South,180,10.0,17.0,41,0.00,,,0.00,meteohub,2013-10-10 19:38:00,
2013-10-10 14:43:00,86.0,58.8,28.36,SE,135,12.0,17.0,40,0.00,,,0.00,meteohub,2013-10-10 19:43:00,
2013-10-10 14:48:00,85.5,57.7,28.36,SE,135,17.0,17.0,39,0.00,,,0.00,meteohub,2013-10-10 19:48:00,
2013-10-10 14:53:00,85.5,58.5,28.36,SE,135,15.0,20.0,40,0.00,,,0.00,meteohub,2013-10-10 19:53:00,
2013-10-10 14:58:00,85.1,58.1,28.36,South,180,16.0,20.0,40,0.00,,,0.00,meteohub,2013-10-10 19:58:00,
2013-10-10 15:03:00,85.1,57.4,28.35,SE,135,15.0,20.0,39,0.00,,,0.00,meteohub,2013-10-10 20:03:00,
2013-10-10 15:08:00,85.3,59.0,28.35,North,0,8.0,20.0,41,0.00,,,0.00,meteohub,2013-10-10 20:08:00,
2013-10-10 15:13:00,85.3,59.0,28.35,North,0,10.0,16.0,41,0.00,,,0.00,meteohub,2013-10-10 20:13:00,
2013-10-10 15:18:00,85.5,58.5,28.35,East,90,15.0,17.0,40,0.00,,,0.00,meteohub,2013-10-10 20:18:00,
2013-10-10 15:23:00,85.6,59.2,28.35,SE,135,15.0,22.0,41,0.00,,,0.00,meteohub,2013-10-10 20:23:00,
2013-10-10 15:29:00,86.0,58.1,28.34,SW,225,15.0,22.0,39,0.00,,,0.00,meteohub,2013-10-10 20:29:00,
2013-10-10 15:31:00,86.2,58.3,28.35,SE,135,16.0,22.0,39,0.00,,,0.00,meteohub,2013-10-10 20:31:00,
2013-10-10 15:36:00,85.8,57.2,28.33,South,180,15.0,17.0,38,0.00,,,0.00,meteohub,2013-10-10 20:36:00,
2013-10-10 15:41:00,85.5,58.5,28.33,SSE,158,10.0,16.0,40,0.00,,,0.00,meteohub,2013-10-10 20:41:00,
2013-10-10 15:46:00,86.0,58.1,28.33,East,90,13.0,16.0,39,0.00,,,0.00,meteohub,2013-10-10 20:46:00,
2013-10-10 15:51:00,86.2,57.6,28.33,North,0,14.0,16.0,38,0.00,,,0.00,meteohub,2013-10-10 20:51:00,
2013-10-10 15:56:00,86.7,57.4,28.33,SE,135,11.0,17.0,37,0.00,,,0.00,meteohub,2013-10-10 20:56:00,
2013-10-10 16:01:00,86.5,57.9,28.33,East,90,16.0,21.0,38,0.00,,,0.00,meteohub,2013-10-10 21:01:00,
2013-10-10 16:06:00,86.5,57.2,28.32,SE,135,15.0,21.0,37,0.00,,,0.00,meteohub,2013-10-10 21:06:00,
2013-10-10 16:11:00,86.4,55.4,28.33,NE,45,15.0,21.0,35,0.00,,,0.00,meteohub,2013-10-10 21:11:00,
2013-10-10 16:16:00,86.4,56.3,28.32,South,180,11.0,16.0,36,0.00,,,0.00,meteohub,2013-10-10 21:16:00,
2013-10-10 16:21:00,86.2,56.8,28.32,East,90,15.0,17.0,37,0.00,,,0.00,meteohub,2013-10-10 21:21:00,
2013-10-10 16:26:00,86.5,55.6,28.32,SE,135,13.0,23.0,35,0.00,,,0.00,meteohub,2013-10-10 21:26:00,
2013-10-10 16:31:00,86.5,56.5,28.31,East,90,15.0,23.0,36,0.00,,,0.00,meteohub,2013-10-10 21:31:00,
2013-10-10 16:36:00,86.5,57.2,28.31,East,90,14.0,17.0,37,0.00,,,0.00,meteohub,2013-10-10 21:36:00,
2013-10-10 16:41:00,86.5,55.6,28.31,SE,135,13.0,16.0,35,0.00,,,0.00,meteohub,2013-10-10 21:41:00,
2013-10-10 16:47:00,86.4,55.4,28.31,SE,135,13.0,16.0,35,0.00,,,0.00,meteohub,2013-10-10 21:47:00,
2013-10-10 16:52:00,86.0,55.9,28.31,East,90,11.0,23.0,36,0.00,,,0.00,meteohub,2013-10-10 21:52:00,
2013-10-10 16:57:00,86.0,56.7,28.31,East,90,16.0,23.0,37,0.00,,,0.00,meteohub,2013-10-10 21:57:00,
2013-10-10 17:02:00,85.8,56.5,28.31,SE,135,9.0,23.0,37,0.00,,,0.00,meteohub,2013-10-10 22:02:00,
2013-10-10 17:07:00,85.8,56.5,28.30,SE,135,15.0,21.0,37,0.00,,,0.00,meteohub,2013-10-10 22:07:00,
2013-10-10 17:12:00,85.1,56.7,28.30,East,90,15.0,20.0,38,0.00,,,0.00,meteohub,2013-10-10 22:12:00,
2013-10-10 17:17:00,85.6,57.2,28.30,East,90,14.0,20.0,38,0.00,,,0.00,meteohub,2013-10-10 22:17:00,
2013-10-10 17:22:00,85.5,57.7,28.30,East,90,13.0,20.0,39,0.00,,,0.00,meteohub,2013-10-10 22:22:00,
2013-10-10 17:27:00,85.1,57.4,28.30,SE,135,12.0,20.0,39,0.00,,,0.00,meteohub,2013-10-10 22:27:00,
2013-10-10 17:32:00,85.3,57.6,28.30,East,90,24.0,24.0,39,0.00,,,0.00,meteohub,2013-10-10 22:32:00,
2013-10-10 17:37:00,84.9,57.9,28.30,SE,135,11.0,24.0,40,0.00,,,0.00,meteohub,2013-10-10 22:37:00,
2013-10-10 17:42:00,84.7,57.7,28.30,NW,315,8.0,24.0,40,0.00,,,0.00,meteohub,2013-10-10 22:42:00,
2013-10-10 17:47:00,84.6,57.6,28.30,SE,135,15.0,24.0,40,0.00,,,0.00,meteohub,2013-10-10 22:47:00,
2013-10-10 17:52:00,84.2,57.9,28.30,North,0,8.0,23.0,41,0.00,,,0.00,meteohub,2013-10-10 22:52:00,
2013-10-10 17:57:00,84.2,57.9,28.30,East,90,9.0,23.0,41,0.00,,,0.00,meteohub,2013-10-10 22:57:00,
2013-10-10 18:02:00,83.8,57.6,28.30,East,90,13.0,23.0,41,0.00,,,0.00,meteohub,2013-10-10 23:02:00,
2013-10-10 18:07:00,83.8,58.3,28.30,ENE,68,11.0,17.0,42,0.00,,,0.00,meteohub,2013-10-10 23:07:00,
2013-10-10 18:12:00,83.5,58.6,28.30,NE,45,12.0,22.0,43,0.00,,,0.00,meteohub,2013-10-10 23:12:00,
2013-10-10 18:17:00,83.5,58.6,28.30,SE,135,11.0,22.0,43,0.00,,,0.00,meteohub,2013-10-10 23:17:00,
2013-10-10 18:22:00,83.3,58.5,28.30,East,90,11.0,22.0,43,0.00,,,0.00,meteohub,2013-10-10 23:22:00,
2013-10-10 18:27:00,82.8,58.6,28.29,East,90,13.0,20.0,44,0.00,,,0.00,meteohub,2013-10-10 23:27:00,
2013-10-10 18:32:00,82.6,58.5,28.30,East,90,11.0,20.0,44,0.00,,,0.00,meteohub,2013-10-10 23:32:00,
2013-10-10 18:37:00,82.4,58.3,28.30,SE,135,15.0,20.0,44,0.00,,,0.00,meteohub,2013-10-10 23:37:00,
2013-10-10 18:42:00,82.0,57.9,28.30,East,90,6.0,20.0,44,0.00,,,0.00,meteohub,2013-10-10 23:42:00,
2013-10-10 18:47:00,81.7,57.6,28.30,East,90,9.0,19.0,44,0.00,,,0.00,meteohub,2013-10-10 23:47:00,
2013-10-10 18:52:00,81.3,57.9,28.30,East,90,9.0,16.0,45,0.00,,,0.00,meteohub,2013-10-10 23:52:00,
2013-10-10 18:57:00,80.8,58.1,28.30,East,90,9.0,15.0,46,0.00,,,0.00,meteohub,2013-10-10 23:57:00,
2013-10-10 19:02:00,80.4,57.7,28.30,SE,135,8.0,15.0,46,0.00,,,0.00,meteohub,2013-10-11 00:02:00,
2013-10-10 19:07:00,80.1,58.1,28.29,SE,135,13.0,15.0,47,0.00,,,0.00,meteohub,2013-10-11 00:07:00,
2013-10-10 19:12:00,79.7,58.3,28.29,SE,135,11.0,17.0,48,0.00,,,0.00,meteohub,2013-10-11 00:12:00,
2013-10-10 19:17:00,79.5,58.1,28.30,North,0,11.0,17.0,48,0.00,,,0.00,meteohub,2013-10-11 00:17:00,
2013-10-10 19:22:00,79.2,58.3,28.29,East,90,10.0,17.0,49,0.00,,,0.00,meteohub,2013-10-11 00:22:00,
2013-10-10 19:27:00,79.2,58.3,28.30,East,90,11.0,17.0,49,0.00,,,0.00,meteohub,2013-10-11 00:27:00,
2013-10-10 19:32:00,78.8,58.1,28.30,NE,45,6.0,17.0,49,0.00,,,0.00,meteohub,2013-10-11 00:32:00,
2013-10-10 19:37:00,78.6,58.5,28.30,East,90,15.0,15.0,50,0.00,,,0.00,meteohub,2013-10-11 00:37:00,
2013-10-10 19:42:00,78.4,58.3,28.30,East,90,8.0,15.0,50,0.00,,,0.00,meteohub,2013-10-11 00:42:00,
2013-10-10 19:47:00,78.4,58.3,28.30,SE,135,11.0,15.0,50,0.00,,,0.00,meteohub,2013-10-11 00:47:00,
2013-10-10 19:52:00,78.3,58.6,28.30,East,90,11.0,15.0,51,0.00,,,0.00,meteohub,2013-10-11 00:52:00,
2013-10-10 19:57:00,77.7,58.1,28.30,East,90,9.0,15.0,51,0.00,,,0.00,meteohub,2013-10-11 00:57:00,
2013-10-10 20:02:00,77.5,57.9,28.30,East,90,8.0,13.0,51,0.00,,,0.00,meteohub,2013-10-11 01:02:00,
2013-10-10 20:07:00,77.4,58.3,28.30,SE,135,11.0,13.0,52,0.00,,,0.00,meteohub,2013-10-11 01:07:00,
2013-10-10 20:12:00,77.4,58.3,28.29,East,90,11.0,14.0,52,0.00,,,0.00,meteohub,2013-10-11 01:12:00,
2013-10-10 20:17:00,77.4,58.3,28.30,North,0,8.0,14.0,52,0.00,,,0.00,meteohub,2013-10-11 01:17:00,
2013-10-10 20:22:00,77.0,58.6,28.29,East,90,12.0,14.0,53,0.00,,,0.00,meteohub,2013-10-11 01:22:00,
2013-10-10 20:27:00,77.0,58.6,28.29,NNE,23,11.0,14.0,53,0.00,,,0.00,meteohub,2013-10-11 01:27:00,
2013-10-10 20:32:00,76.5,58.1,28.29,South,180,11.0,14.0,53,0.00,,,0.00,meteohub,2013-10-11 01:32:00,
2013-10-10 20:37:00,76.3,58.5,28.28,SE,135,10.0,16.0,54,0.00,,,0.00,meteohub,2013-10-11 01:37:00,
2013-10-10 20:42:00,76.3,58.5,28.29,East,90,10.0,16.0,54,0.00,,,0.00,meteohub,2013-10-11 01:42:00,
2013-10-10 20:47:00,76.3,59.0,28.29,East,90,9.0,17.0,55,0.00,,,0.00,meteohub,2013-10-11 01:47:00,
2013-10-10 20:52:00,75.9,59.2,28.29,East,90,10.0,17.0,56,0.00,,,0.00,meteohub,2013-10-11 01:52:00,
2013-10-10 20:57:00,75.6,58.8,28.29,East,90,11.0,16.0,56,0.00,,,0.00,meteohub,2013-10-11 01:57:00,
2013-10-10 21:02:00,75.4,59.0,28.29,East,90,10.0,16.0,57,0.00,,,0.00,meteohub,2013-10-11 02:02:00,
2013-10-10 21:07:00,74.8,58.6,28.29,NE,45,10.0,15.0,57,0.00,,,0.00,meteohub,2013-10-11 02:07:00,
2013-10-10 21:12:00,75.0,59.2,28.28,East,90,15.0,15.0,58,0.00,,,0.00,meteohub,2013-10-11 02:12:00,
2013-10-10 21:17:00,75.0,59.2,28.29,East,90,11.0,16.0,58,0.00,,,0.00,meteohub,2013-10-11 02:17:00,
2013-10-10 21:22:00,75.0,59.2,28.29,West,270,10.0,16.0,58,0.00,,,0.00,meteohub,2013-10-11 02:22:00,
2013-10-10 21:27:00,75.0,59.7,28.30,East,90,14.0,16.0,59,0.00,,,0.00,meteohub,2013-10-11 02:27:00,
2013-10-10 21:32:00,74.8,59.5,28.29,East,90,10.0,15.0,59,0.00,,,0.00,meteohub,2013-10-11 02:32:00,
2013-10-10 21:37:00,74.7,59.9,28.29,East,90,9.0,15.0,60,0.00,,,0.00,meteohub,2013-10-11 02:37:00,
2013-10-10 21:42:00,74.1,59.4,28.30,SE,135,9.0,14.0,60,0.00,,,0.00,meteohub,2013-10-11 02:42:00,
2013-10-10 21:47:00,73.8,59.5,28.29,East,90,12.0,14.0,61,0.00,,,0.00,meteohub,2013-10-11 02:47:00,
2013-10-10 21:52:00,73.6,59.4,28.29,East,90,9.0,13.0,61,0.00,,,0.00,meteohub,2013-10-11 02:52:00,
2013-10-10 21:57:00,73.4,59.5,28.29,East,90,15.0,15.0,62,0.00,,,0.00,meteohub,2013-10-11 02:57:00,
2013-10-10 22:02:00,73.2,59.4,28.28,East,90,12.0,15.0,62,0.00,,,0.00,meteohub,2013-10-11 03:02:00,
2013-10-10 22:07:00,72.9,59.5,28.29,East,90,7.0,15.0,63,0.00,,,0.00,meteohub,2013-10-11 03:07:00,
2013-10-10 22:12:00,73.0,60.1,28.29,SE,135,15.0,15.0,64,0.00,,,0.00,meteohub,2013-10-11 03:12:00,
2013-10-10 22:17:00,72.9,59.9,28.29,South,180,11.0,15.0,64,0.00,,,0.00,meteohub,2013-10-11 03:17:00,
2013-10-10 22:22:00,72.9,59.9,28.29,East,90,8.0,15.0,64,0.00,,,0.00,meteohub,2013-10-11 03:22:00,
2013-10-10 22:27:00,72.7,59.7,28.29,NE,45,14.0,16.0,64,0.00,,,0.00,meteohub,2013-10-11 03:27:00,
2013-10-10 22:32:00,72.9,59.9,28.29,East,90,9.0,16.0,64,0.00,,,0.00,meteohub,2013-10-11 03:32:00,
2013-10-10 22:37:00,72.5,60.1,28.29,SE,135,12.0,16.0,65,0.00,,,0.00,meteohub,2013-10-11 03:37:00,
2013-10-10 22:42:00,72.5,60.1,28.29,East,90,11.0,15.0,65,0.00,,,0.00,meteohub,2013-10-11 03:42:00,
2013-10-10 22:47:00,72.5,60.1,28.29,East,90,11.0,14.0,65,0.00,,,0.00,meteohub,2013-10-11 03:47:00,
2013-10-10 22:52:00,72.5,60.1,28.29,NE,45,11.0,14.0,65,0.00,,,0.00,meteohub,2013-10-11 03:52:00,
2013-10-10 22:57:00,72.3,59.9,28.29,SW,225,10.0,15.0,65,0.00,,,0.00,meteohub,2013-10-11 03:57:00,
2013-10-10 23:01:00,72.3,60.3,28.29,East,90,12.0,15.0,66,0.00,,,0.00,meteohub,2013-10-11 04:01:00,
2013-10-10 23:02:00,72.3,60.3,28.29,East,90,8.0,15.0,66,0.00,,,0.00,meteohub,2013-10-11 04:02:00,
2013-10-10 23:07:00,72.1,60.1,28.29,ESE,113,13.0,17.0,66,0.00,,,0.00,meteohub,2013-10-11 04:07:00,
2013-10-10 23:12:00,72.3,60.3,28.29,East,90,14.0,17.0,66,0.00,,,0.00,meteohub,2013-10-11 04:12:00,
2013-10-10 23:17:00,72.3,60.3,28.29,East,90,14.0,15.0,66,0.00,,,0.00,meteohub,2013-10-11 04:17:00,
2013-10-10 23:22:00,72.0,60.4,28.29,North,0,11.0,17.0,67,0.00,,,0.00,meteohub,2013-10-11 04:22:00,
2013-10-10 23:27:00,71.6,60.1,28.29,SE,135,12.0,17.0,67,0.00,,,0.00,meteohub,2013-10-11 04:27:00,
2013-10-10 23:32:00,71.4,60.3,28.29,East,90,11.0,17.0,68,0.00,,,0.00,meteohub,2013-10-11 04:32:00,
2013-10-10 23:37:00,71.2,60.1,28.29,East,90,11.0,15.0,68,0.00,,,0.00,meteohub,2013-10-11 04:37:00,
2013-10-10 23:42:00,71.1,59.9,28.29,East,90,10.0,15.0,68,0.00,,,0.00,meteohub,2013-10-11 04:42:00,
2013-10-10 23:47:00,71.1,60.4,28.30,East,90,10.0,13.0,69,0.00,,,0.00,meteohub,2013-10-11 04:47:00,
2013-10-10 23:52:00,70.9,60.3,28.29,East,90,8.0,13.0,69,0.00,,,0.00,meteohub,2013-10-11 04:52:00,
2013-10-10 23:57:00,70.5,60.3,28.30,SE,135,6.0,12.0,70,0.00,,,0.00,meteohub,2013-10-11 04:57:00,